DW7027 Weather Reports


Display with metric or nautical units.
time (UTC)temp
F
wind
direction
speed
MPH
gust
MPH
rain 1hr
in
rain 24hr
in
rain mn
in
humidity
%
barometer
mb
20260506202205 66 183 7.0 16.0 0.00 0.00 0.00 61 1009.6
20260506201704 66 212 7.0 12.0 0.00 0.00 0.00 60 1009.8
20260506201204 66 182 9.0 20.0 0.00 0.00 0.00 60 1009.7
20260506200704 66 187 8.0 18.0 0.00 0.00 0.00 59 1009.6
20260506200204 67 199 11.0 20.0 0.00 0.00 0.00 59 1009.4
20260506195704 67 195 10.0 20.0 0.00 0.00 0.00 59 1009.4
20260506195205 67 195 12.0 20.0 0.00 0.00 0.00 59 1009.2
20260506194704 67 180 11.0 22.0 0.00 0.00 0.00 58 1009.2
20260506194205 67 202 9.0 20.0 0.00 0.00 0.00 58 1009.2
20260506193704 67 188 12.0 20.0 0.00 0.00 0.00 58 1009.5
20260506192704 67 184 9.0 21.0 0.00 0.00 0.00 57 1009.3
20260506192205 67 196 11.0 21.0 0.00 0.00 0.00 57 1009.4
20260506191705 68 179 9.0 17.0 0.00 0.00 0.00 57 1009.2
20260506191204 68 184 8.0 21.0 0.00 0.00 0.00 57 1009.3
20260506190705 68 202 7.0 21.0 0.00 0.00 0.00 57 1009.3
20260506190204 68 203 12.0 22.0 0.00 0.00 0.00 56 1009.2
20260506185704 68 178 10.0 20.0 0.00 0.00 0.00 56 1009.1
20260506185205 68 189 10.0 17.0 0.00 0.00 0.00 56 1009.1
20260506184704 68 200 9.0 23.0 0.00 0.00 0.00 56 1009.0
20260506184204 69 192 9.0 23.0 0.00 0.00 0.00 55 1008.7
20260506183705 69 177 10.0 21.0 0.00 0.00 0.00 55 1008.7
20260506182704 69 181 9.0 17.0 0.00 0.00 0.00 54 1008.5
20260506182205 69 185 9.0 17.0 0.00 0.00 0.00 54 1008.5
20260506180704 70 182 9.0 17.0 0.00 0.00 0.00 53 1008.6
20260506180204 70 184 9.0 20.0 0.00 0.00 0.00 52 1008.4
20260506175705 70 185 10.0 17.0 0.00 0.00 0.00 51 1008.3
20260506175204 71 176 10.0 15.0 0.00 0.00 0.00 51 1008.2
20260506174704 71 176 9.0 20.0 0.00 0.00 0.00 50 1008.3
20260506174204 71 182 11.0 24.0 0.00 0.00 0.00 49 1008.4
20260506173704 71 184 7.0 21.0 0.00 0.00 0.00 49 1008.4
20260506173205 72 213 6.0 15.0 0.00 0.00 0.00 48 1008.2
20260506172704 72 198 11.0 23.0 0.00 0.00 0.00 48 1008.4
20260506172204 72 176 10.0 21.0 0.00 0.00 0.00 48 1008.4
20260506171704 72 190 13.0 21.0 0.00 0.00 0.00 48 1008.0
20260506171204 73 196 12.0 21.0 0.00 0.00 0.00 47 1008.0
20260506170705 73 183 10.0 29.0 0.00 0.00 0.00 47 1008.4
20260506165704 73 177 12.0 21.0 0.00 0.00 0.00 47 1008.3
20260506165204 73 175 6.0 16.0 0.00 0.00 0.00 47 1008.5
20260506164706 73 188 9.0 16.0 0.00 0.00 0.00 47 1008.4
20260506164204 73 178 6.0 21.0 0.00 0.00 0.00 47 1008.6
20260506163704 74 180 13.0 20.0 0.00 0.00 0.00 46 1008.6
20260506163204 74 190 10.0 17.0 0.00 0.00 0.00 46 1008.5
20260506162704 74 191 10.0 17.0 0.00 0.00 0.00 46 1008.7
20260506162204 74 185 9.0 17.0 0.00 0.00 0.00 46 1008.7
20260506161704 74 190 9.0 18.0 0.00 0.00 0.00 45 1008.7
20260506161204 74 175 9.0 18.0 0.00 0.00 0.00 45 1008.9
20260506160704 74 213 9.0 18.0 0.00 0.00 0.00 45 1008.9
20260506160206 75 201 11.0 21.0 0.00 0.00 0.00 45 1008.8
20260506155704 75 181 9.0 18.0 0.00 0.00 0.00 45 1008.9
20260506155206 75 186 12.0 23.0 0.00 0.00 0.00 45 1008.7
20260506153205 76 194 12.0 23.0 0.00 0.00 0.00 43 1008.9
20260506152704 77 204 12.0 21.0 0.00 0.00 0.00 43 1008.9
20260506152204 77 169 9.0 21.0 0.00 0.00 0.00 43 1008.9
20260506151704 77 167 8.0 21.0 0.00 0.00 0.00 43 1009.0
20260506151204 77 180 12.0 17.0 0.00 0.00 0.00 41 1008.7
20260506150704 77 146 9.0 18.0 0.00 0.00 0.00 42 1009.1
20260506150205 77 191 6.0 15.0 0.00 0.00 0.00 41 1008.9
20260506145704 78 176 6.0 15.0 0.00 0.00 0.00 41 1009.0
20260506144705 78 188 6.0 18.0 0.00 0.00 0.00 40 1009.1
20260506144204 78 204 9.0 24.0 0.00 0.00 0.00 39 1009.3
20260506143705 78 179 10.0 16.0 0.00 0.00 0.00 40 1009.2
20260506142704 77 138 8.0 16.0 0.00 0.00 0.00 41 1009.2
20260506141705 76 185 6.0 12.0 0.00 0.00 0.00 43 1009.4
20260506141204 76 140 6.0 10.0 0.00 0.00 0.00 44 1009.4
20260506140704 75 136 6.0 13.0 0.00 0.00 0.00 44 1009.7
20260506140205 75 139 6.0 15.0 0.00 0.00 0.00 45 1009.7
20260506135704 75 179 6.0 15.0 0.00 0.00 0.00 45 1009.9
20260506135204 75 171 8.0 17.0 0.00 0.00 0.00 45 1009.9
20260506134705 75 166 8.0 15.0 0.00 0.00 0.00 45 1010.0
20260506134205 75 136 8.0 14.0 0.00 0.00 0.00 45 1009.8
20260506133705 75 169 7.0 14.0 0.00 0.00 0.00 45 1010.0
20260506133204 75 164 7.0 14.0 0.00 0.00 0.00 44 1010.0
20260506132704 75 173 8.0 18.0 0.00 0.00 0.00 45 1010.2
20260506131704 76 181 9.0 16.0 0.00 0.00 0.00 44 1010.4
20260506131204 76 187 10.0 17.0 0.00 0.00 0.00 45 1010.2
20260506130705 76 156 6.0 14.0 0.00 0.00 0.00 46 1010.5
20260506130204 76 175 12.0 20.0 0.00 0.00 0.00 45 1010.5
20260506125704 76 181 9.0 20.0 0.00 0.00 0.00 46 1010.6
20260506125205 76 188 9.0 14.0 0.00 0.00 0.00 46 1010.7
20260506124705 76 164 8.0 15.0 0.00 0.00 0.00 44 1010.6
20260506123204 75 168 8.0 15.0 0.00 0.00 0.00 48 1010.9
20260506122704 76 187 9.0 16.0 0.00 0.00 0.00 47 1011.0
20260506122204 76 165 7.0 16.0 0.00 0.00 0.00 48 1011.1
20260506121704 76 196 7.0 16.0 0.00 0.00 0.00 47 1011.1
20260506121204 76 193 7.0 15.0 0.00 0.00 0.00 47 1011.1
20260506115205 77 184 10.0 22.0 0.00 0.00 0.00 46 1010.9
20260506114204 77 169 9.0 22.0 0.00 0.00 0.00 46 1010.8
20260506113704 77 213 7.0 21.0 0.00 0.00 0.00 46 1010.8
20260506113204 77 217 8.0 16.0 0.00 0.00 0.00 45 1010.9
20260506112704 76 189 9.0 16.0 0.00 0.00 0.00 46 1010.9
20260506112204 76 149 6.0 12.0 0.00 0.00 0.00 47 1011.1
20260506111704 76 183 4.0 18.0 0.00 0.00 0.00 46 1011.2
20260506111204 77 203 10.0 18.0 0.00 0.00 0.00 45 1011.0
20260506105705 77 170 6.0 18.0 0.00 0.00 0.00 41 1011.1
20260506105204 77 148 4.0 20.0 0.00 0.00 0.00 42 1011.2
20260506104705 77 131 9.0 20.0 0.00 0.00 0.00 43 1011.5
20260506104204 77 191 7.0 14.0 0.00 0.00 0.00 44 1011.6
20260506103704 77 203 6.0 12.0 0.00 0.00 0.00 44 1011.5
20260506103204 77 119 8.0 15.0 0.00 0.00 0.00 44 1011.6
20260506102705 77 171 6.0 13.0 0.00 0.00 0.00 44 1011.6
20260506102204 77 172 6.0 15.0 0.00 0.00 0.00 44 1011.6
20260506101704 76 243 3.0 13.0 0.00 0.00 0.00 45 1011.6
20260506101204 76 197 7.0 13.0 0.00 0.00 0.00 45 1011.8
20260506100205 76 197 6.0 12.0 0.00 0.00 0.00 45 1012.1
20260506095704 76 222 6.0 12.0 0.00 0.00 0.00 45 1012.1
20260506095204 75 149 5.0 10.0 0.00 0.00 0.00 45 1012.1
20260506094704 75 217 7.0 17.0 0.00 0.00 0.00 44 1012.0
20260506094204 75 176 10.0 15.0 0.00 0.00 0.00 44 1012.1
20260506093204 75 125 5.0 8.0 0.00 0.00 0.00 48 1012.0
20260506092704 75 55 5.0 10.0 0.00 0.00 0.00 49 1012.1
20260506092204 75 204 5.0 10.0 0.00 0.00 0.00 48 1012.0
20260506091704 75 89 6.0 10.0 0.00 0.00 0.00 50 1012.3
20260506091204 75 199 3.0 8.0 0.00 0.00 0.00 50 1012.1
20260506090704 75 146 1.0 9.0 0.00 0.00 0.00 50 1012.1
20260506090204 74 185 5.0 9.0 0.00 0.00 0.00 51 1012.3
20260506085704 74 247 3.0 6.0 0.00 0.00 0.00 51 1012.5
20260506085204 73 97 1.0 10.0 0.00 0.00 0.00 51 1012.5
20260506084704 73 255 7.0 12.0 0.00 0.00 0.00 49 1012.3
20260506084204 73 202 5.0 10.0 0.00 0.00 0.00 50 1012.4
20260506083704 73 191 5.0 8.0 0.00 0.00 0.00 50 1012.4
20260506082704 72 244 2.0 10.0 0.00 0.00 0.00 50 1012.6
20260506082204 72 214 5.0 7.0 0.00 0.00 0.00 52 1012.7
20260506081704 72 267 5.0 9.0 0.00 0.00 0.00 53 1012.7
20260506081204 72 245 7.0 12.0 0.00 0.00 0.00 54 1012.4
20260506080704 72 237 5.0 10.0 0.00 0.00 0.00 54 1012.6
20260506080204 71 201 6.0 10.0 0.00 0.00 0.00 55 1012.6
20260506073204 70 235 3.0 6.0 0.00 0.00 0.00 59 1012.7
20260506072704 70 223 2.0 7.0 0.00 0.00 0.00 60 1012.8
20260506072204 69 206 3.0 7.0 0.00 0.00 0.00 62 1012.7
20260506071704 69 247 2.0 6.0 0.00 0.00 0.00 63 1012.8
20260506071204 68 263 2.0 6.0 0.00 0.00 0.00 64 1013.0
20260506070704 68 204 2.0 6.0 0.00 0.00 0.00 64 1012.8
20260506070204 68 246 4.0 8.0 0.00 0.00 0.00 65 1013.0
20260506062204 64 204 6.0 8.0 0.00 0.00 0.00 72 1012.9
20260506061704 63 215 3.0 7.0 0.00 0.00 0.00 72 1013.2
20260506061204 63 195 4.0 8.0 0.00 0.00 0.00 73 1013.2
20260506060704 62 211 3.0 6.0 0.00 0.00 0.00 74 1013.2
20260506051204 56 191 4.0 6.0 0.00 0.00 0.00 79 1013.3
20260506050704 56 183 4.0 7.0 0.00 0.00 0.00 78 1013.5
20260506044704 55 172 2.0 3.0 0.00 0.00 0.00 77 1013.1
20260506044204 55 180 2.0 3.0 0.00 0.00 0.00 77 1013.2
20260506043704 55 171 3.0 5.0 0.00 0.00 0.00 77 1013.2
20260506043204 55 172 2.0 3.0 0.00 0.00 0.00 76 1013.1
20260506042704 55 194 3.0 5.0 0.00 0.00 0.00 76 1012.9
20260506042204 55 118 3.0 5.0 0.00 0.00 0.00 76 1012.8
20260506041704 55 109 3.0 5.0 0.00 0.00 0.00 75 1013.1
20260506041204 56 110 1.0 3.0 0.00 0.00 0.00 75 1012.7
20260506040704 56 176 3.0 6.0 0.00 0.00 0.00 75 1012.6
20260506040204 56 177 4.0 7.0 0.00 0.00 0.00 76 1012.6
20260506035704 56 214 3.0 6.0 0.00 0.00 0.00 75 1012.6
20260506035204 56 225 3.0 8.0 0.00 0.00 0.00 75 1012.5
20260506034704 55 243 3.0 7.0 0.00 0.00 0.00 75 1012.6
20260506034204 55 239 3.0 7.0 0.00 0.00 0.00 75 1012.8
20260506033703 55 234 5.0 7.0 0.00 0.00 0.00 76 1012.8
20260506032704 55 243 5.0 6.0 0.00 0.00 0.00 75 1012.7
20260506032204 55 227 2.0 5.0 0.00 0.00 0.00 74 1012.6
20260506031704 55 195 2.0 6.0 0.00 0.00 0.00 74 1012.3
20260506031204 55 211 3.0 5.0 0.00 0.00 0.00 73 1012.5
20260506030704 55 92 1.0 2.0 0.00 0.00 0.00 73 1012.3
20260506030204 55 98 0.0 3.0 0.00 0.00 0.00 73 1012.2
20260506025704 56 212 2.0 5.0 0.00 0.00 0.00 73 1012.3
20260506025204 56 217 2.0 5.0 0.00 0.00 0.00 73 1012.3
20260506024704 56 208 3.0 5.0 0.00 0.00 0.00 73 1012.3
20260506024204 56 204 3.0 6.0 0.00 0.00 0.00 73 1012.1
20260506023704 56 188 3.0 5.0 0.00 0.00 0.00 72 1012.2
20260506023204 56 177 3.0 6.0 0.00 0.00 0.00 73 1012.2
20260506022704 57 190 3.0 6.0 0.00 0.00 0.00 72 1012.3
20260506022204 57 207 3.0 6.0 0.00 0.00 0.00 72 1012.1
20260506021704 57 219 3.0 7.0 0.00 0.00 0.00 73 1012.1
20260506021204 57 225 4.0 9.0 0.00 0.00 0.00 72 1012.1
20260506020704 57 206 6.0 9.0 0.00 0.00 0.00 72 1011.9
20260506020204 57 214 5.0 7.0 0.00 0.00 0.00 72 1011.9
20260506015704 57 204 3.0 6.0 0.00 0.00 0.00 71 1012.0
20260506014705 57 216 5.0 7.0 0.00 0.00 0.00 71 1011.9
20260506014204 57 214 3.0 5.0 0.00 0.00 0.00 71 1011.9
20260506013704 57 223 3.0 5.0 0.00 0.00 0.00 71 1011.9
20260506012704 57 245 3.0 5.0 0.00 0.00 0.00 70 1011.6
20260506011704 57 189 3.0 5.0 0.00 0.00 0.00 69 1011.4
20260506011204 58 202 3.0 6.0 0.00 0.00 0.00 69 1011.5
20260506010704 58 199 3.0 5.0 0.00 0.00 0.00 69 1011.3
20260506010204 58 214 3.0 6.0 0.00 0.00 0.00 69 1011.3
20260506005703 58 199 5.0 7.0 0.00 0.00 0.00 68 1011.4
20260506005204 58 217 3.0 8.0 0.00 0.00 0.00 68 1011.2
20260506003703 59 203 5.0 7.0 0.00 0.00 0.00 68 1011.2
20260506002704 59 229 4.0 8.0 0.00 0.00 0.00 67 1011.1
20260506002205 59 197 6.0 9.0 0.00 0.00 0.00 68 1011.0
20260506001704 59 195 6.0 10.0 0.00 0.00 0.00 67 1010.9
20260506001204 59 191 6.0 10.0 0.00 0.00 0.00 67 1011.0
20260506000704 59 222 6.0 14.0 0.00 0.00 0.00 67 1010.9
20260506000205 60 189 9.0 14.0 0.00 0.00 0.00 66 1010.7
20260505235704 60 206 6.0 14.0 0.00 0.00 0.00 66 1011.1
20260505235203 60 192 7.0 14.0 0.00 0.00 0.00 65 1010.8
20260505234204 60 198 8.0 13.0 0.00 0.00 0.00 65 1010.8
20260505233704 60 221 6.0 10.0 0.00 0.00 0.00 65 1010.9
20260505233204 60 203 5.0 10.0 0.00 0.00 0.00 64 1010.9
20260505232704 60 201 6.0 15.0 0.00 0.00 0.00 65 1010.8
20260505232204 60 183 9.0 13.0 0.00 0.00 0.00 64 1010.8
20260505231703 60 182 7.0 10.0 0.00 0.00 0.00 65 1010.5
20260505231203 60 175 6.0 9.0 0.00 0.00 0.00 64 1010.6
20260505225703 61 201 5.0 8.0 0.00 0.00 0.00 62 1010.6
20260505225204 61 199 5.0 9.0 0.00 0.00 0.00 61 1010.6
20260505224703 61 176 7.0 13.0 0.00 0.00 0.00 62 1010.4
20260505224204 61 177 7.0 14.0 0.00 0.00 0.00 60 1010.4
20260505223704 61 172 7.0 15.0 0.00 0.00 0.00 61 1010.4
20260505223204 62 187 6.0 13.0 0.00 0.00 0.00 61 1010.4
20260505222204 62 185 6.0 13.0 0.00 0.00 0.00 60 1010.6
20260505221703 62 187 7.0 13.0 0.00 0.00 0.00 60 1010.2
20260505221204 62 171 7.0 18.0 0.00 0.00 0.00 60 1010.1
20260505220704 62 183 5.0 13.0 0.00 0.00 0.00 59 1010.2
20260505220204 62 181 6.0 13.0 0.00 0.00 0.00 59 1009.9
20260505215703 62 172 7.0 12.0 0.00 0.00 0.00 58 1010.4
20260505215205 63 177 7.0 15.0 0.00 0.00 0.00 58 1010.1
20260505214704 63 169 7.0 13.0 0.00 0.00 0.00 58 1010.1
20260505214204 63 174 5.0 14.0 0.00 0.00 0.00 58 1010.0
20260505213204 63 170 7.0 15.0 0.00 0.00 0.00 57 1010.0
20260505212704 63 139 7.0 14.0 0.00 0.00 0.00 57 1010.0
20260505212204 63 172 6.0 14.0 0.00 0.00 0.00 57 1010.1
20260505211703 64 160 9.0 14.0 0.00 0.00 0.00 56 1010.3
20260505211204 64 185 4.0 13.0 0.00 0.00 0.00 56 1010.0
20260505210704 64 178 8.0 14.0 0.00 0.00 0.00 56 1010.0
20260505210204 64 170 7.0 13.0 0.00 0.00 0.00 56 1009.9
20260505205704 64 147 7.0 17.0 0.00 0.00 0.00 56 1010.0
20260505205204 64 165 8.0 15.0 0.00 0.00 0.00 56 1010.0
20260505204704 64 159 7.0 13.0 0.00 0.00 0.00 56 1010.1
20260505204204 64 179 6.0 13.0 0.00 0.00 0.00 55 1010.1
20260505203204 65 173 8.0 17.0 0.00 0.00 0.00 55 1010.2